Preview of NWS' New Version of Forecast
This preview is not operational and should not be used for support decisions.
Latest weather observations around

Spokane, Spokane International Airport (KGEG)

Using English Units (Switch to International System of Units)
Date/ Time (PDT) Wind (mph) Vis. (mi) Weather Sky Cond. Temp (°F) Rel. Humidity Wind Chill (°F) Heat Index (°F) Pressure Precip. (in)
Air Dwpt 6 hour Altimeter (inHg) Sea level (inHg) 1 hr 3 hr 6 hr
Max Min
Apr 24 12:53 5 10 Mostly Clear FEW050 60 27     28%     30.15 30.15      
Apr 24 11:53 NW 10 10 Mostly Clear FEW040 58 26     29%     30.16 30.15      
Apr 24 10:53 3 10 Mostly Clear FEW040 55 30     38%     30.15 30.15      
Apr 24 09:53 3 10 Mostly Clear FEW040 FEW200 52 31     44%     30.13 30.14      
Apr 24 08:53 W 9 10 Mostly Clear FEW040 49 31     50% 45   30.13 30.12      
Apr 24 07:53 SW 6 10 Mostly Clear FEW040 46 32     58% 43   30.11 30.11      
Apr 24 06:53 SSW 6 10 Mostly Clear FEW100 43 32     65% 39   30.09 30.08      
Apr 24 05:53 SW 8 10 Mostly Clear FEW100 FEW250 41 33     73% 36   30.06 30.06      
Apr 24 04:53 SW 9 10 Mostly Clear FEW100 FEW250 42 33     70% 37   30.05 30.04      
Apr 24 03:53 SSW 8 10 Partly Cloudy SCT250 44 33     65% 40   30.04 30.03      
Apr 24 02:53 SW 15 10 Mostly Cloudy BKN250 45 34     65% 38   30.01 30.01      
Apr 24 01:53 SW 17 10 Mostly Cloudy BKN250 47 33     58% 40   30.01 30      
Apr 24 00:53 SW 17 10 Mostly Cloudy BKN250 49 33     54% 43   30 29.99      
Apr 23 23:53 SW 16 10 Mostly Clear FEW230 50 33     52%     29.99 29.98      
Apr 23 22:53 SW 15 10 Clear CLR 51 33     50%     29.98 29.98      
Apr 23 21:53 WSW 11 10 Mostly Clear FEW050 54 33     45%     29.99 29.98      
Apr 23 20:53 WSW 17 10 Partly Cloudy FEW050 SCT200 58 35     42%     29.97 29.96      
Apr 23 19:53 WSW 18 10 Mostly Cloudy FEW050 FEW070 BKN200 61 39     44%     29.96 29.95      
Apr 23 18:53 WSW 18 10 Mostly Cloudy FEW055 BKN200 64 39     40%     29.97 29.96      
Apr 23 17:53 WSW 18 10 Mostly Cloudy FEW055 BKN200 65 38     37%     29.98 29.96      
Apr 23 16:53 SW 23 10 Mostly Cloudy and Windy SCT055 BKN200 65 41     42%     29.98 29.97      
Apr 23 15:53 WSW 20 10 Mostly Cloudy and Windy SCT055 SCT110 BKN200 67 41     39%     30 29.98      
Apr 23 14:53 SW 23 10 Mostly Cloudy and Windy BKN050 BKN200 66 42     42%     30.02 30      
Apr 23 13:53 SW 22 10 Mostly Cloudy and Windy BKN045 BKN200 66 43     43%     30.02 30      
Apr 23 12:53 SW 20 10 Mostly Cloudy and Windy SCT035 SCT130 BKN200 63 45     52%     30.03 30.01      
Apr 23 11:53 SW 14 10 Mostly Cloudy FEW030 SCT130 BKN200 61 45     56%     30.05 30.03      
Apr 23 10:53 SW 14 10 Mostly Cloudy FEW030 BKN140 BKN200 59 44     58%     30.05 30.04      
Apr 23 09:53 SW 13 10 Mostly Cloudy FEW030 SCT130 BKN200 57 45     64%     30.07 30.06      
Apr 23 08:53 SW 13 10 Mostly Cloudy FEW025 SCT110 BKN200 54 45     72%     30.08 30.07      
Apr 23 07:53 SSW 9 10 Mostly Cloudy FEW025 BKN110 BKN200 52 44     74%     30.08 30.07      
Apr 23 06:53 SSW 8 10 Mostly Cloudy FEW025 BKN110 BKN200 50 43     77%     30.08 30.07      
Apr 23 05:53 SSW 11 10 Mostly Cloudy FEW080 BKN100 BKN120 50 43     77%     30.08 30.06      
Apr 23 04:53 SSW 13 10 Cloudy BKN100 OVC120 51 43     74%     30.07 30.06      
Apr 23 03:53 SSW 16 10 Mostly Cloudy SCT095 BKN120 BKN150 52 44     74%     30.07 30.06      
Apr 23 02:53 SW 15 10 Mostly Cloudy SCT110 BKN130 52 44     74%     30.06 30.05      
Apr 23 01:53 SSW 18 10 Cloudy SCT120 BKN140 OVC250 53 44     71%     30.06 30.05      
Apr 23 00:53 SW 17 10 Cloudy SCT070 OVC095 55 43     64%     30.08 30.07      
Apr 22 23:53 SSW 15 10 Cloudy FEW080 OVC100 56 43     62%     30.08 30.07      
Apr 22 22:53 SSW 13 10 Cloudy FEW080 OVC110 56 42     60%     30.09 30.08 0   0
Apr 22 21:53 SSW 13 10 Light Rain OVC070 56 42     60%     30.11 30.1 0    
Apr 22 20:53 SSW 13 10 Light Rain BKN090 OVC110 58 39     49%     30.1 30.1 0    
Apr 22 19:53 SSW 9 10 Cloudy FEW050 OVC070 60 33     36%     30.11 30.11      
Apr 22 18:53 SSW 13 10 Cloudy SCT065 OVC095 61 27     27%     30.11 30.11      
Apr 22 17:53 SW 15 10 Cloudy BKN100 BKN140 OVC200 63 27     25%     30.12 30.12      
Apr 22 16:53   10 Mostly Cloudy FEW050 SCT100 BKN140 BKN200 64 28     26%     30.13 30.13      
Apr 22 15:53 SSW 17 10 Mostly Cloudy FEW060 SCT110 BKN150 64 33     31%     30.15 30.14      
Apr 22 14:53 SSW 15 10 Mostly Cloudy FEW060 SCT110 BKN150 63 35     35%     30.17 30.17      
Apr 22 13:53 SW 18 10 Mostly Cloudy FEW060 SCT110 BKN150 62 34     35%     30.19 30.19      
Apr 22 12:53 SSW 16 10 Mostly Cloudy FEW050 FEW170 BKN250 60 36     40%     30.21 30.2      
Apr 22 11:53 SSW 17 10 Mostly Cloudy FEW050 FEW170 BKN250 59 37     44%     30.22 30.22      
Apr 22 10:53 SSW 10 10 Mostly Cloudy SCT170 BKN250 57 37     47%     30.23 30.23      
Apr 22 09:53 S 10 10 Mostly Cloudy FEW150 BKN250 56 37     49%     30.22 30.22      
Apr 22 08:53 SSE 9 10 Mostly Cloudy FEW150 BKN250 52 37     57%     30.24 30.24      
Apr 22 07:53 S 9 10 Partly Cloudy FEW150 SCT250 47 35     63% 43   30.24 30.25      
Apr 22 06:53 S 7 10 Partly Cloudy SCT250 43 34     70% 39   30.21 30.22      
Apr 22 05:53 SSE 9 10 Partly Cloudy SCT200 41 33     73% 35   30.21 30.21      
Apr 22 04:53 SSE 9 10 Mostly Clear FEW200 42 33     70% 37   30.2 30.21      
Apr 22 03:53 SSE 8 10 Clear CLR 44 33     65% 40   30.21 30.21      
Apr 22 02:53 SSE 8 10 Clear CLR 45 32     60% 41   30.2 30.2      
Apr 22 01:53 S 7 10 Clear CLR 49 34     56% 46   30.2 30.19      
Apr 22 00:53 SW 10 10 Clear CLR 49 34     56% 45   30.2 30.2      
Apr 21 23:53 SW 15 10 Clear CLR 52 30     43%     30.19 30.19      
Apr 21 22:53 SW 13 10 Mostly Clear FEW250 52 31     44%     30.18 30.18      
Apr 21 21:53 SW 9 10 Mostly Clear FEW250 53 32     45%     30.17 30.17      
Apr 21 20:53 SSW 8 10 Partly Cloudy SCT200 56 32     40%     30.17 30.17      
Apr 21 19:53 SSW 9 10 Partly Cloudy FEW070 SCT200 59 31     34%     30.15 30.15      
Apr 21 18:53 SW 13 10 Partly Cloudy FEW070 SCT200 61 30     31%     30.14 30.14      
Apr 21 17:53 SW 13 10 Partly Cloudy FEW070 SCT200 63 32     31%     30.14 30.14      
Apr 21 16:53 WSW 9 10 Mostly Cloudy SCT065 BKN200 63 33     33%     30.14 30.14      
Apr 21 15:53 SSW 6 10 Mostly Cloudy SCT070 BKN200 62 32     32%     30.13 30.14      
Apr 21 14:53 WSW 7 10 Partly Cloudy FEW060 SCT200 63 34     34%     30.14 30.15      
Apr 21 13:53 WSW 11 10 Partly Cloudy FEW050 SCT140 SCT200 62 36     38%     30.16 30.17      
Notice The following observation data may not be complete
May 15 01:53 Calm 10 Clear CLR   41      %     29.92 29.88      
May 14 16:53 Calm 10 Mostly Clear FEW060 FEW250 82 32     16%   80 29.96 29.91      
May 14 02:53 Calm 10 Clear   58 45     62%     30.01 29.97      
May 13 21:53 NW 3 10 Mostly Clear FEW100 65 43     45%     29.98 29.94      
May 13 15:53 NNE 9 10 Mostly Clear FEW060 80 36     20%   79 29.95 29.91      
May 12 05:53 Calm 10 Patchy Fog FEW200 45 43     93%     30.09 30.09      
May 12 01:53 Calm 10 Clear CLR 48 44     86%     30.09 30.09      
May 11 05:53 Calm 10 Patchy Fog FEW006 SCT130 BKN200 43 42     97%     30.02 30.03      
Jun 10 19:53 SSW 10 10 Clear   60 37     42%     29.81 29.8      
Jun 10 16:49   10 Mostly Cloudy FEW030 SCT050 BKN065 BKN130 63 36     36%     29.77        
Jun 08 07:53 SSW 10 10 Cloudy SCT070 BKN090 OVC150 66 50     56%     29.67 29.6      
Jun 07 10:53 ENE 10 10 Partly Cloudy FEW012 SCT240 77 50     39%   76 29.84 29.78      
Notice The following observation data may not be complete
Jun 07 05:53 NE 6 10 Partly Cloudy FEW170 SCT200   47      %     29.9 29.85